Location: Unspecified
(49.2170°N, 0.0000°E)
Time: 18:05:05
(UTC+00:00)

A-11 Canister half - Pass Details

Date: 24 January 2021
Orbit: 1516 x 1684 km, 47.2° (Epoch: 05 March)

Event Time Altitude Azimuth Distance (km) Brightness Sun altitude
Rises 18:55:56 0° 201° (SSW) 4,764 11.9 -21.3°
Reaches altitude 10° 18:59:35 10° 190° (S) 3,757 11.2 -21.9°
Maximum altitude 19:07:12 28° 136° (SE) 2,559 9.8 -23.2°
Enters shadow 19:08:19 28° 124° (SE) 2,586 9.7 -23.3°
